Delta, CO

9:26 PM MDT on April 29, 2017 (GMT -0600)
Garnet Mesa 2 | | Change Station
Active Advisory: Freeze Warning

Elev 5069 ft 38.74 °N, 108.06 °W | Updated 25 seconds ago

Clear
Clear
45.9 °F
Feels Like 46 °F
N
2.0
Wind Variable Wind from WNW

Today
High -- | Low -- °F
--% Chance of Precip.
Yesterday
High -- | Low -- °F
Precip. -- in
Pressure 30.08 in
Visibility 10.0 miles
Clouds Clear
Windchill 46 °F
Dew Point 21 °F
Humidity 37%
Rainfall 0.09 in
Snow Depth Not available.
6:16 AM 8:02 PM
Waxing Crescent, 19% visible
METAR KAJZ 300315Z AUTO 34013G17KT 10SM CLR 09/M07 A3008 RMK AO2 T00911067
Pressure 30.08 in
Visibility 10.0 miles
Clouds Clear
Windchill 46 °F
Dew Point 21 °F
Humidity 37%
Rainfall 0.09 in
Snow Depth Not available.
6:16 AM 8:02 PM
Waxing Crescent, 19% visible
METAR KAJZ 300315Z AUTO 34013G17KT 10SM CLR 09/M07 A3008 RMK AO2 T00911067

Get Your Daily Forecast Email!

Thanks for signing up!

Be on the lookout for a verification email in your inbox.

You'll start receiving severe weather alerts in your inbox..

×

10-Day Weather Forecast

Almanac

Astronomy

Apr. 29, 2017 Rise Set
Actual Time
Civil Twilight
Nautical Twilight
Astronomical Twilight
Moon
Length of Visible Light
Length of Day
Tomorrow will be .
, % of the Moon is Illuminated

Today's Extremes

State Highs State Lows

Community

WunderPhotos

WunderBlog® & News

Nearby

Air Quality

  Air Quality AQ Index Pollutant
Not available.

Snow Depth

Station Depth Elevation

Earthquake Activity

City Distance Mag. Time & Date
Minimum magnitude displayed is 2.5.

Coastal Water Temperatures

Place Temperature

Stations

Nearby Weather Stations

Station Location Temp. Windchill Dew Point Humidity Wind Precip. Elev Updated Type
                   

Watches & Warnings

Freeze Warning
Issued: 6:42 PM MDT Apr. 29, 2017 – National Weather Service

... Freeze warning remains in effect until 9 am MDT Sunday...

* locations include... Montrose, Hotchkiss, and Delta.

* Temperatures... low temperatures of 25 to 30 degrees are expected
                 Sunday morning.

* Timing... the coldest temperatures will occur just before and
           around sunrise Sunday.

* Impacts... budding vegetation may be negatively impacted as
            temperatures drop below critical thresholds. Small,
            exposed water lines, such as those associated with
            swamp coolers, could freeze up.

Precautionary/preparedness actions...

A freeze warning means sub-freezing temperatures are imminent or
highly likely. These conditions will kill crops and other
sensitive vegetation.